PROBA-1 1 26958U 01049B 26038.14625910 .00002171 00000+0 14534-3 0 9991 2 26958 97.9623 42.1822 0055027 201.2910 158.6027 15.06857673324030 CUTE-1 (CO-55) 1 27844U 03031E 26038.00414118 .00000481 00000+0 22742-3 0 9992 2 27844 98.6775 48.1865 0009237 197.5390 162.5471 14.24239877173145 CUBESAT XI-IV (CO-57) 1 27848U 03031J 26037.99814235 .00000403 00000+0 19627-3 0 9999 2 27848 98.6804 47.9978 0008794 216.6284 143.4294 14.23538936172851 APRIZESAT 4 1 35684U 09041D 26038.17160536 .00001224 00000+0 15284-3 0 9999 2 35684 98.1549 110.8567 0043957 24.8460 335.4857 14.83646763892084 APRIZESAT 3 1 35686U 09041F 26038.00706124 .00003502 00000+0 30766-3 0 9995 2 35686 98.1836 185.1878 0063148 136.2657 224.3590 14.95749912896914 PROBA-2 1 36037U 09059B 26038.04448789 .00000465 00000+0 11910-3 0 9994 2 36037 98.2403 223.2094 0012489 327.1182 32.9237 14.54767952862605 APRIZESAT 5 1 37792U 11044E 26037.74036801 .00001865 00000+0 24369-3 0 9991 2 37792 98.2389 327.1744 0053822 63.3967 297.2745 14.80753634779483 APRIZESAT 6 1 37793U 11044F 26038.20602231 .00001192 00000+0 17555-3 0 9992 2 37793 98.2441 306.0232 0044068 140.4031 342.8042 14.76687548777965 PROBA-V 1 39159U 13021A 26038.02072271 .00000122 00000+0 71542-4 0 9991 2 39159 98.3459 23.1431 0004801 141.0482 219.1044 14.23565526662592 APRIZESAT 7 1 39416U 13066A 26038.12739467 .00002333 00000+0 23813-3 0 9997 2 39416 97.7549 353.3777 0034536 283.2241 76.5126 14.91168308661847 APRIZESAT 8 1 39425U 13066K 26037.84314058 .00002152 00000+0 24006-3 0 9994 2 39425 97.8075 347.2774 0046170 356.8697 3.2224 14.87317678660295 BUGSAT-1 (TITA) 1 40014U 14033E 26038.17579793 .00008640 00000+0 47402-3 0 9994 2 40014 98.0472 123.2669 0027917 264.3058 95.4988 15.14094637636158 SAUDISAT 4 1 40016U 14033G 26037.99034457 .00001448 00000+0 19796-3 0 9992 2 40016 97.7354 188.7983 0045925 135.9552 224.5333 14.79323521626820 APRIZESAT 9 1 40018U 14033J 26037.94968855 .00001226 00000+0 18816-3 0 9993 2 40018 97.8834 174.5111 0065097 258.8558 100.5327 14.74001542624370 APRIZESAT 10 1 40019U 14033K 26038.18747903 .00000829 00000+0 13817-3 0 9994 2 40019 97.9439 168.2194 0078344 329.8029 29.8674 14.70700375623143 TECHDEMOSAT-1 (TDS-1) 1 40076U 14037H 26038.00076263 .00013663 00000+0 82437-3 0 9990 2 40076 98.3743 17.6161 0006595 7.0737 353.0582 15.10860900628556 TECHNOSAT 1 42829U 17042E 26038.15904280 .00005267 00000+0 38414-3 0 9999 2 42829 97.4098 200.9718 0018126 172.7136 187.4357 15.03990166467154 FLYING LAPTOP 1 42831U 17042G 26038.16705409 .00002596 00000+0 21117-3 0 9999 2 42831 97.4221 199.2165 0015559 200.8678 159.1913 15.00301535466956 HAWK-A 1 43765U 18099H 26038.18993142 .00009162 00000+0 38847-3 0 9998 2 43765 97.4119 92.1641 0036929 25.0408 335.2609 15.22715690393303 HAWK-B 1 43794U 18099AN 26038.12828347 .00008747 00000+0 39059-3 0 9992 2 43794 97.4166 91.7760 0034307 41.8962 318.4890 15.21057320393250 HAWK-C 1 43799U 18099AT 26038.11757041 .00010991 00000+0 42129-3 0 9994 2 43799 97.4094 92.4006 0043235 27.3360 333.0140 15.25798006394065 SALSAT 1 46495U 20068K 26038.02223739 .00011294 00000+0 42137-3 0 9997 2 46495 97.8837 33.3954 0011645 46.9337 313.2873 15.27533154295478 HAWK-2C 1 47502U 21006CT 26038.06303041 .00010241 00000+0 32567-3 0 9996 2 47502 97.2475 85.0029 0005875 318.8819 41.1980 15.32777609279559 HAWK-2A 1 47505U 21006CW 26038.13182364 .00011040 00000+0 35074-3 0 9994 2 47505 97.2518 85.6713 0005488 323.0575 37.0289 15.32792421279569 HAWK-2B 1 47508U 21006CZ 26038.12859561 .00010435 00000+0 33181-3 0 9990 2 47508 97.2391 84.2187 0006016 319.0771 41.0019 15.32775838279561 HAWK-3B 1 48931U 21059BE 26038.02307645 .00042848 00000+0 54633-3 0 9997 2 48931 97.6708 223.4300 0006486 85.3765 274.8231 15.59171860257505 HAWK-3C 1 48948U 21059BX 26038.08704589 .00042946 00000+0 54724-3 0 9999 2 48948 97.6867 228.9334 0007042 85.7489 274.4571 15.59183006257511 HAWK-3A 1 48957U 21059CG 26038.08688147 .00041502 00000+0 52918-3 0 9990 2 48957 97.6797 226.2506 0006580 84.6866 275.5140 15.59176819257516 HAWK-5C 1 52754U 22057Y 26037.99554092 .00025081 00000+0 51299-3 0 9994 2 52754 97.6419 189.9320 0005115 175.3928 184.7368 15.46109355206194 HAWK-5B 1 52756U 22057AA 26037.99538844 .00025683 00000+0 52521-3 0 9990 2 52756 97.6401 188.2766 0005076 170.7289 189.4054 15.46109941206193 HAWK-5A 1 52757U 22057AB 26037.99512897 .00026247 00000+0 53654-3 0 9996 2 52757 97.6413 189.1076 0005588 172.3888 187.7447 15.46114336206193 HAWK-6B 1 55324U 23011A 26038.15516377 .00007842 00000+0 34965-3 0 9990 2 55324 40.5150 29.6985 0003594 220.9038 139.1502 15.21478737168023 HAWK-6C 1 55326U 23011C 26038.02327027 .00008033 00000+0 35794-3 0 9994 2 55326 40.4839 27.4132 0003427 209.9056 150.1557 15.21476423168012 HAWK-6A 1 55327U 23011D 26038.02328429 .00007963 00000+0 35492-3 0 9998 2 55327 40.4997 28.9798 0003069 212.8582 147.2036 15.21476151168018 HAWK-7A 1 56191U 23054P 26038.14905064 .00007536 00000+0 27974-3 0 9996 2 56191 97.2877 288.7516 0008004 192.6922 167.4117 15.27829215157185 HAWK-7B 1 56193U 23054R 26038.14894195 .00008237 00000+0 30552-3 0 9995 2 56193 97.2899 286.9668 0007938 201.4831 158.6077 15.27826548157185 HAWK-7C 1 56200U 23054Y 26037.69021986 .00005897 00000+0 21938-3 0 9990 2 56200 97.2872 287.3286 0007819 198.5117 161.5839 15.27852277157117